Location: Kawakawa
(35.3830°S, 174.0670°E)
Time: 11:26:23
(UTC+13:00)

Spot 2 Rocket - Visible Passes

Search period start: 14 November 2019 00:00
Search period end: 24 November 2019 00:00
Orbit: 758 x 771 km, 98.6° (Epoch: 12 November)

Date Brightness Start Highest point End Pass type
(mag) Time Alt. Az. Time Alt. Az. Time Alt. Az.
14 Nov 6.2 00:50:36 10° SW 00:51:18 10° WSW 00:51:53 10° WSW visible
14 Nov 4.8 22:31:31 10° SSE 22:34:27 27° ESE 22:34:27 27° ESE visible
15 Nov 5.4 00:10:53 10° SSW 00:14:39 24° WSW 00:14:39 24° WSW visible
15 Nov 5.6 21:56:16 10° ESE 21:57:13 12° ESE 21:57:13 12° ESE visible
15 Nov 4.3 23:33:19 10° S 23:37:25 48° SW 23:37:25 48° SW visible
16 Nov 4.1 22:56:24 10° SSE 23:00:11 46° SE 23:00:11 46° SE visible
17 Nov 6.0 00:37:21 10° SW 00:39:51 14° WSW 00:40:23 14° WSW visible
17 Nov 4.9 22:20:13 10° SE 22:22:57 23° ESE 22:22:57 23° ESE visible
17 Nov 5.0 23:58:57 10° S 00:03:08 30° WSW 00:03:08 30° WSW visible
18 Nov 3.9 23:21:36 10° S 23:25:54 60° SSW 23:25:54 60° SSW visible
19 Nov 4.2 22:44:54 10° SSE 22:48:40 40° ESE 22:48:40 40° ESE visible
20 Nov 5.7 00:25:01 10° SSW 00:28:23 18° WSW 00:28:51 18° WSW visible
20 Nov 5.2 22:09:03 10° SE 22:11:25 18° ESE 22:11:25 18° ESE visible
20 Nov 4.6 23:47:05 10° S 23:51:37 40° WSW 23:51:37 40° WSW visible
21 Nov 3.7 23:09:57 10° SSE 23:14:23 67° SSE 23:14:23 67° SSE visible
22 Nov 4.4 22:33:28 10° SSE 22:37:09 33° ESE 22:37:09 33° ESE visible
23 Nov 5.4 00:12:54 10° SSW 00:16:53 23° WSW 00:17:20 23° WSW visible
23 Nov 5.4 21:58:06 10° ESE 21:59:54 14° ESE 21:59:54 14° ESE visible
23 Nov 4.1 23:35:18 10° S 23:40:06 52° WSW 23:40:06 52° WSW visible
